Location: Eldred Sherwood Park Lake Dam
(42.9416°N, 93.5655°W)
Time: 12:37:06
(UTC+00:00)

Explorer 11/Cluster Stage 4 - Pass Details

Date: 18 December 2025
Orbit: 463 x 1180 km, 28.8° (Epoch: 13 January)

Event Time Altitude Azimuth Distance (km) Brightness Sun altitude
Rises 02:43:53 0° 255° (WSW) 4,001 10.9 -43.4°
Reaches altitude 10° 02:47:40 10° 240° (WSW) 2,966 9.9 -44.0°
Enters shadow 02:49:40 15° 226° (SW) 2,537 9.4 -44.4°
